Location: *
(49.9853°N, 3.5569°E)
Time: 20:42:18
(UTC+00:00)

Cosmos 405 Rocket - Pass Details

Date: 17 December 2019
Orbit: 490 x 554 km, 81.3° (Epoch: 28 January)

Event Time Altitude Azimuth Distance (km) Brightness Sun altitude
Rises 16:20:16 0° 3° (N) 2,585 5.9 -5.6°
Reaches altitude 10° 16:23:14 10° 29° (NNE) 1,701 4.8 -6.0°
Maximum altitude 16:25:18 14° 63° (ENE) 1,457 4.3 -6.3°
Drops below altitude 10° 16:27:22 10° 97° (E) 1,704 4.8 -6.6°
Sets 16:30:20 0° 123° (ESE) 2,592 6.0 -7.0°
